Time,TemperatureF,DewpointF,PressureIn,WindDirection,WindDirectionDegrees,WindSpeedMPH,WindSpeedGustMPH,Humidity,HourlyPrecipIn,Conditions,Clouds,dailyrainin,SoftwareType,DateUTC
2013-01-03 00:00:00,69.1,67.6,30.03,SSW,202,0.0,0.0,95,0.05,RA,,0.00,WeatherDisplay:10.37,2013-01-03 10:00:00,
2013-01-03 00:05:00,69.3,67.8,30.03,WSW,248,2.6,3.5,95,0.06,RA,,0.01,WeatherDisplay:10.37,2013-01-03 10:05:00,
2013-01-03 00:10:00,69.4,67.9,30.03,NE,45,3.8,4.7,95,0.06,RA,,0.01,WeatherDisplay:10.37,2013-01-03 10:10:00,
2013-01-03 00:16:00,69.6,68.1,30.03,NNW,338,3.0,3.5,95,0.06,CLR,,0.01,WeatherDisplay:10.37,2013-01-03 10:16:00,
2013-01-03 00:21:00,69.8,68.3,30.03,NE,45,5.0,5.8,95,0.06,CLR,,0.01,WeatherDisplay:10.37,2013-01-03 10:21:00,
2013-01-03 00:26:00,69.6,68.1,30.03,ENE,68,2.9,4.6,95,0.07,RA,,0.02,WeatherDisplay:10.37,2013-01-03 10:26:00,
2013-01-03 00:31:00,69.6,68.1,30.03,South,180,3.1,4.6,95,0.05,RA,,0.02,WeatherDisplay:10.37,2013-01-03 10:31:00,
2013-01-03 00:36:00,69.6,68.1,30.02,NNE,22,2.4,4.6,95,0.03,CLR,,0.02,WeatherDisplay:10.37,2013-01-03 10:36:00,
2013-01-03 00:41:00,69.6,68.1,30.02,East,90,4.8,5.8,95,0.03,CLR,,0.02,WeatherDisplay:10.37,2013-01-03 10:41:00,
2013-01-03 00:46:00,69.6,68.1,30.02,ENE,68,4.3,5.8,95,0.03,CLR,,0.02,WeatherDisplay:10.37,2013-01-03 10:46:00,
2013-01-03 00:51:00,69.6,68.1,30.02,NNW,338,2.8,4.2,95,0.03,CLR,,0.02,WeatherDisplay:10.37,2013-01-03 10:51:00,
2013-01-03 00:56:00,69.6,68.1,30.02,NE,45,3.9,5.8,95,0.03,CLR,,0.02,WeatherDisplay:10.37,2013-01-03 10:56:00,
2013-01-03 01:01:00,69.6,68.1,30.02,NE,45,3.4,7.3,95,0.01,CLR,,0.02,WeatherDisplay:10.37,2013-01-03 11:01:00,
2013-01-03 01:06:00,69.6,68.1,30.02,North,360,3.6,4.6,95,0.02,RA,,0.03,WeatherDisplay:10.37,2013-01-03 11:06:00,
2013-01-03 01:11:00,69.6,68.1,30.02,WNW,292,3.5,4.7,95,0.02,RA,,0.03,WeatherDisplay:10.37,2013-01-03 11:11:00,
2013-01-03 01:16:00,69.6,68.1,30.02,NE,45,3.5,3.7,95,0.02,,,0.03,WeatherDisplay:10.37,2013-01-03 11:16:00,
2013-01-03 01:21:00,69.6,68.1,30.02,West,270,3.0,3.5,95,0.02,CLR,,0.03,WeatherDisplay:10.37,2013-01-03 11:21:00,
2013-01-03 01:26:00,69.6,68.1,30.01,West,270,2.1,3.5,95,0.01,CLR,,0.05,WeatherDisplay:10.37,2013-01-03 11:26:00,
2013-01-03 01:31:00,69.6,68.1,30.01,ESE,112,1.6,3.7,95,0.04,RA,,0.06,WeatherDisplay:10.37,2013-01-03 11:31:00,
2013-01-03 01:37:00,69.6,68.1,30.01,WSW,248,1.7,2.2,95,0.04,RA,,0.06,WeatherDisplay:10.37,2013-01-03 11:37:00,
2013-01-03 01:42:00,69.6,68.1,30.01,SSW,202,3.0,3.5,95,0.04,CLR,,0.06,WeatherDisplay:10.37,2013-01-03 11:42:00,
2013-01-03 01:47:00,69.4,67.9,30.01,East,90,3.9,4.6,95,0.06,RA,,0.08,WeatherDisplay:10.37,2013-01-03 11:47:00,
2013-01-03 01:52:00,69.4,67.9,30.01,NNE,22,7.2,8.1,95,0.07,RA,,0.09,WeatherDisplay:10.37,2013-01-03 11:52:00,
2013-01-03 01:57:00,69.4,67.9,30.01,North,360,5.1,5.8,95,0.08,RA,,0.10,WeatherDisplay:10.37,2013-01-03 11:57:00,
2013-01-03 02:02:00,69.3,67.8,30.01,West,270,2.2,3.2,95,0.09,RA,,0.11,WeatherDisplay:10.37,2013-01-03 12:02:00,
2013-01-03 02:07:00,69.1,67.6,30.01,NE,45,1.7,2.3,95,0.08,RA,,0.11,WeatherDisplay:10.37,2013-01-03 12:07:00,
2013-01-03 02:12:00,69.1,67.6,30.00,WSW,248,2.1,2.3,95,0.08,CLR,,0.11,WeatherDisplay:10.37,2013-01-03 12:12:00,
2013-01-03 02:17:00,68.9,67.4,30.00,North,360,1.6,2.3,95,0.08,CLR,,0.11,WeatherDisplay:10.37,2013-01-03 12:17:00,
2013-01-03 02:22:00,68.9,67.4,30.01,East,90,1.8,2.3,95,0.09,RA,,0.12,WeatherDisplay:10.37,2013-01-03 12:22:00,
2013-01-03 02:27:00,68.9,67.4,30.01,South,180,2.4,2.4,95,0.08,RA,,0.13,WeatherDisplay:10.37,2013-01-03 12:27:00,
2013-01-03 02:32:00,68.9,67.4,30.01,NNW,338,2.4,2.7,95,0.08,RA,,0.14,WeatherDisplay:10.37,2013-01-03 12:32:00,
2013-01-03 02:37:00,68.9,67.4,30.00,East,90,5.8,5.8,95,0.09,RA,,0.15,WeatherDisplay:10.37,2013-01-03 12:37:00,
2013-01-03 02:43:00,69.1,67.6,30.00,WNW,292,3.7,4.6,95,0.08,RA,,0.15,WeatherDisplay:10.37,2013-01-03 12:43:00,
2013-01-03 02:48:00,69.1,67.6,30.00,NW,315,3.0,3.5,95,0.07,CLR,,0.15,WeatherDisplay:10.37,2013-01-03 12:48:00,
2013-01-03 02:53:00,69.1,67.6,30.00,NNW,338,2.9,3.5,95,0.05,CLR,,0.15,WeatherDisplay:10.37,2013-01-03 12:53:00,
2013-01-03 02:58:00,69.1,67.6,30.00,NNW,338,2.9,4.2,95,0.05,RA,,0.16,WeatherDisplay:10.37,2013-01-03 12:58:00,
2013-01-03 03:03:00,69.3,68.1,29.99,NNE,22,3.5,4.6,96,0.05,RA,,0.16,WeatherDisplay:10.37,2013-01-03 13:03:00,
2013-01-03 03:08:00,69.4,68.2,29.99,NE,45,5.9,10.4,96,0.09,RA,,0.20,WeatherDisplay:10.37,2013-01-03 13:08:00,
2013-01-03 03:13:00,69.1,67.9,29.99,NE,45,6.0,9.2,96,0.09,RA,,0.20,WeatherDisplay:10.37,2013-01-03 13:13:00,
2013-01-03 03:18:00,68.9,67.7,29.99,NE,45,3.5,5.8,96,0.09,CLR,,0.20,WeatherDisplay:10.37,2013-01-03 13:18:00,
2013-01-03 03:23:00,68.9,67.7,30.00,NE,45,2.5,3.5,96,0.09,RA,,0.21,WeatherDisplay:10.37,2013-01-03 13:23:00,
2013-01-03 03:28:00,68.9,67.7,30.00,NW,315,2.4,6.9,96,0.08,RA,,0.21,WeatherDisplay:10.37,2013-01-03 13:28:00,
2013-01-03 03:33:00,68.9,67.7,30.00,SW,225,3.6,5.8,96,0.06,CLR,,0.21,WeatherDisplay:10.37,2013-01-03 13:33:00,
2013-01-03 03:38:00,68.9,67.7,29.99,NW,315,3.8,4.6,96,0.06,CLR,,0.21,WeatherDisplay:10.37,2013-01-03 13:38:00,
2013-01-03 03:43:00,68.9,67.7,29.99,East,90,3.0,4.6,96,0.06,CLR,,0.21,WeatherDisplay:10.37,2013-01-03 13:43:00,
2013-01-03 03:48:00,68.9,67.7,29.99,ENE,68,7.7,7.8,96,0.06,CLR,,0.21,WeatherDisplay:10.37,2013-01-03 13:48:00,
2013-01-03 03:54:00,69.1,67.9,29.99,ENE,68,6.7,8.1,96,0.06,CLR,,0.21,WeatherDisplay:10.37,2013-01-03 13:54:00,
2013-01-03 03:59:00,69.1,67.9,29.99,NNE,22,5.7,6.3,96,0.05,CLR,,0.21,WeatherDisplay:10.37,2013-01-03 13:59:00,
2013-01-03 04:04:00,69.3,67.8,29.99,North,360,4.7,4.7,95,0.03,CLR,,0.21,WeatherDisplay:10.37,2013-01-03 14:04:00,
2013-01-03 04:09:00,69.3,67.8,29.99,North,360,4.7,4.7,95,0.01,CLR,,0.21,WeatherDisplay:10.37,2013-01-03 14:09:00,
2013-01-03 04:14:00,69.3,67.8,29.99,WNW,292,2.7,2.7,95,0.01,CLR,,0.21,WeatherDisplay:10.37,2013-01-03 14:14:00,
2013-01-03 04:19:00,69.3,67.8,29.99,East,90,4.3,6.9,95,0.06,RA,,0.27,WeatherDisplay:10.37,2013-01-03 14:19:00,
2013-01-03 04:24:00,69.1,67.6,29.99,WNW,292,5.9,8.1,95,0.12,RA,,0.33,WeatherDisplay:10.37,2013-01-03 14:24:00,
2013-01-03 04:29:00,68.9,67.4,29.99,NE,45,4.7,6.3,95,0.12,RA,,0.33,WeatherDisplay:10.37,2013-01-03 14:29:00,
2013-01-03 04:34:00,68.9,67.4,29.99,NNE,22,6.2,8.1,95,0.12,,,0.33,WeatherDisplay:10.37,2013-01-03 14:34:00,
2013-01-03 04:39:00,68.9,67.4,29.99,NNE,22,2.7,3.2,95,0.12,CLR,,0.33,WeatherDisplay:10.37,2013-01-03 14:39:00,
2013-01-03 04:44:00,68.9,67.4,29.99,NNW,338,2.3,4.6,95,0.12,CLR,,0.33,WeatherDisplay:10.37,2013-01-03 14:44:00,
2013-01-03 04:49:00,68.9,67.4,29.99,NNW,338,3.5,4.6,95,0.13,RA,,0.34,WeatherDisplay:10.37,2013-01-03 14:49:00,
2013-01-03 04:54:00,68.7,67.2,29.99,North,360,4.0,4.6,95,0.13,RA,,0.34,WeatherDisplay:10.37,2013-01-03 14:54:00,
2013-01-03 04:59:00,68.7,67.2,29.98,ESE,112,4.8,6.3,95,0.13,,,0.34,WeatherDisplay:10.37,2013-01-03 14:59:00,
2013-01-03 05:04:00,68.7,67.2,29.98,ENE,68,3.4,5.8,95,0.13,CLR,,0.34,WeatherDisplay:10.37,2013-01-03 15:04:00,
2013-01-03 05:10:00,68.7,67.2,29.98,East,90,6.4,11.5,95,0.14,RA,,0.35,WeatherDisplay:10.37,2013-01-03 15:10:00,
2013-01-03 05:15:00,68.5,67.0,29.99,North,360,5.8,8.1,95,0.14,RA,,0.35,WeatherDisplay:10.37,2013-01-03 15:15:00,
2013-01-03 05:20:00,68.5,67.0,29.99,NE,45,5.3,5.8,95,0.06,CLR,,0.35,WeatherDisplay:10.37,2013-01-03 15:20:00,
2013-01-03 05:25:00,68.7,67.2,29.99,NE,45,7.7,10.4,95,0.03,RA,,0.36,WeatherDisplay:10.37,2013-01-03 15:25:00,
2013-01-03 05:30:00,68.7,67.2,29.99,ENE,68,5.3,8.1,95,0.03,RA,,0.36,WeatherDisplay:10.37,2013-01-03 15:30:00,
2013-01-03 05:35:00,68.5,67.0,29.99,NNW,338,4.4,4.7,95,0.03,CLR,,0.36,WeatherDisplay:10.37,2013-01-03 15:35:00,
2013-01-03 05:40:00,68.5,67.3,29.99,NW,315,4.9,6.3,96,0.03,CLR,,0.36,WeatherDisplay:10.37,2013-01-03 15:40:00,
2013-01-03 05:45:00,68.5,67.3,29.99,SE,135,1.3,2.3,96,0.03,CLR,,0.36,WeatherDisplay:10.37,2013-01-03 15:45:00,
2013-01-03 05:50:00,68.7,67.5,30.00,NNW,338,5.7,9.2,96,0.02,CLR,,0.36,WeatherDisplay:10.37,2013-01-03 15:50:00,
2013-01-03 05:55:00,68.9,67.7,30.00,NE,45,5.4,6.3,96,0.03,RA,,0.37,WeatherDisplay:10.37,2013-01-03 15:55:00,
2013-01-03 06:00:00,68.7,67.5,30.00,East,90,9.2,10.4,96,0.03,RA,,0.37,WeatherDisplay:10.37,2013-01-03 16:00:00,
2013-01-03 06:05:00,68.9,67.7,30.00,ENE,68,8.3,11.4,96,0.03,,,0.37,WeatherDisplay:10.37,2013-01-03 16:05:00,
2013-01-03 06:10:00,68.9,67.7,30.00,NW,315,2.2,2.3,96,0.02,CLR,,0.37,WeatherDisplay:10.37,2013-01-03 16:10:00,
2013-01-03 06:15:00,68.9,67.7,30.00,NNE,22,3.8,5.8,96,0.02,CLR,,0.37,WeatherDisplay:10.37,2013-01-03 16:15:00,
2013-01-03 06:21:00,68.9,67.7,30.00,ENE,68,5.5,6.9,96,0.02,CLR,,0.37,WeatherDisplay:10.37,2013-01-03 16:21:00,
2013-01-03 06:26:00,68.9,67.7,30.00,North,360,6.7,8.1,96,0.02,RA,,0.38,WeatherDisplay:10.37,2013-01-03 16:26:00,
2013-01-03 06:31:00,68.9,67.7,30.00,East,90,3.3,6.9,96,0.02,RA,,0.38,WeatherDisplay:10.37,2013-01-03 16:31:00,
2013-01-03 06:36:00,68.7,67.5,30.00,WSW,248,2.1,3.5,96,0.02,,,0.38,WeatherDisplay:10.37,2013-01-03 16:36:00,
2013-01-03 06:41:00,68.7,67.5,30.00,NE,45,4.0,4.6,96,0.02,CLR,,0.38,WeatherDisplay:10.37,2013-01-03 16:41:00,
2013-01-03 06:46:00,68.7,67.5,30.00,NNW,338,2.2,2.7,96,0.02,CLR,,0.38,WeatherDisplay:10.37,2013-01-03 16:46:00,
2013-01-03 06:51:00,68.7,67.5,30.00,NNW,338,4.7,5.8,96,0.02,CLR,,0.38,WeatherDisplay:10.37,2013-01-03 16:51:00,
2013-01-03 06:56:00,68.7,67.5,30.00,North,360,3.0,5.8,96,0.01,CLR,,0.38,WeatherDisplay:10.37,2013-01-03 16:56:00,
2013-01-03 07:01:00,68.7,67.5,30.00,NE,45,6.1,8.1,96,0.01,CLR,,0.38,WeatherDisplay:10.37,2013-01-03 17:01:00,
2013-01-03 07:06:00,68.4,67.2,30.00,West,270,4.3,5.8,96,0.01,CLR,,0.38,WeatherDisplay:10.37,2013-01-03 17:06:00,
2013-01-03 07:11:00,68.4,67.2,30.01,West,270,2.9,4.7,96,0.01,CLR,,0.38,WeatherDisplay:10.37,2013-01-03 17:11:00,
2013-01-03 07:17:00,68.7,67.5,30.01,NNW,338,5.1,5.8,96,0.01,CLR,,0.38,WeatherDisplay:10.37,2013-01-03 17:17:00,
2013-01-03 07:22:00,68.7,67.5,30.01,NE,45,4.6,5.8,96,0.01,CLR,,0.38,WeatherDisplay:10.37,2013-01-03 17:22:00,
2013-01-03 07:27:00,68.7,67.5,30.01,ESE,112,6.0,6.9,96,0.00,CLR,,0.38,WeatherDisplay:10.37,2013-01-03 17:27:00,
2013-01-03 07:32:00,68.7,67.5,30.01,NE,45,5.1,5.8,96,0.00,CLR,,0.38,WeatherDisplay:10.37,2013-01-03 17:32:00,
2013-01-03 07:37:00,68.7,67.5,30.01,NNW,338,3.8,5.8,96,0.00,CLR,,0.38,WeatherDisplay:10.37,2013-01-03 17:37:00,
2013-01-03 07:42:00,68.7,67.5,30.01,NE,45,3.5,4.6,96,0.01,RA,,0.39,WeatherDisplay:10.37,2013-01-03 17:42:00,
2013-01-03 07:47:00,68.7,67.5,30.02,North,360,4.0,5.8,96,0.03,RA,,0.41,WeatherDisplay:10.37,2013-01-03 17:47:00,
2013-01-03 07:52:00,68.7,67.5,30.02,West,270,3.6,4.6,96,0.03,RA,,0.41,WeatherDisplay:10.37,2013-01-03 17:52:00,
2013-01-03 07:57:00,68.9,67.7,30.02,East,90,4.3,4.6,96,0.03,CLR,,0.41,WeatherDisplay:10.37,2013-01-03 17:57:00,
2013-01-03 08:02:00,69.1,67.9,30.03,WNW,292,3.2,3.5,96,0.03,CLR,,0.41,WeatherDisplay:10.37,2013-01-03 18:02:00,
2013-01-03 08:07:00,69.3,68.1,30.03,NNE,22,4.9,5.8,96,0.03,CLR,,0.41,WeatherDisplay:10.37,2013-01-03 18:07:00,
2013-01-03 08:12:00,69.3,68.1,30.03,East,90,6.5,8.1,96,0.03,CLR,,0.41,WeatherDisplay:10.37,2013-01-03 18:12:00,
2013-01-03 08:17:00,69.4,68.2,30.03,NW,315,3.6,8.1,96,0.03,CLR,,0.41,WeatherDisplay:10.37,2013-01-03 18:17:00,
2013-01-03 08:22:00,69.6,68.4,30.04,WNW,292,3.6,4.6,96,0.03,CLR,,0.41,WeatherDisplay:10.37,2013-01-03 18:22:00,
2013-01-03 08:27:00,69.8,68.6,30.04,NW,315,5.1,5.8,96,0.03,CLR,,0.41,WeatherDisplay:10.37,2013-01-03 18:27:00,
2013-01-03 08:32:00,70.0,68.5,30.04,NW,315,7.2,9.2,95,0.03,CLR,,0.41,WeatherDisplay:10.37,2013-01-03 18:32:00,
2013-01-03 08:38:00,70.0,68.5,30.04,NNE,22,6.9,8.3,95,0.02,CLR,,0.41,WeatherDisplay:10.37,2013-01-03 18:38:00,
2013-01-03 08:43:00,70.0,68.5,30.04,WNW,292,4.8,5.8,95,0.01,CLR,,0.41,WeatherDisplay:10.37,2013-01-03 18:43:00,
2013-01-03 08:48:00,70.2,68.7,30.04,ESE,112,2.1,3.5,95,0.00,CLR,,0.41,WeatherDisplay:10.37,2013-01-03 18:48:00,
2013-01-03 08:53:00,70.3,68.8,30.04,NE,45,3.6,4.6,95,0.00,CLR,,0.41,WeatherDisplay:10.37,2013-01-03 18:53:00,
2013-01-03 08:58:00,70.3,68.8,30.04,NNW,338,6.5,6.9,95,0.00,CLR,,0.41,WeatherDisplay:10.37,2013-01-03 18:58:00,
2013-01-03 09:03:00,70.3,68.8,30.04,East,90,4.5,6.9,95,0.00,CLR,,0.41,WeatherDisplay:10.37,2013-01-03 19:03:00,
2013-01-03 09:08:00,70.2,68.7,30.04,East,90,6.4,8.1,95,0.02,RA,,0.43,WeatherDisplay:10.37,2013-01-03 19:08:00,
2013-01-03 09:13:00,70.2,68.7,30.05,NE,45,7.5,9.2,95,0.02,RA,,0.43,WeatherDisplay:10.37,2013-01-03 19:13:00,
2013-01-03 09:18:00,70.2,68.7,30.05,ENE,68,5.2,5.8,95,0.02,,,0.43,WeatherDisplay:10.37,2013-01-03 19:18:00,
2013-01-03 09:29:00,70.2,68.7,30.06,NE,45,4.2,4.6,95,0.04,RA,,0.45,WeatherDisplay:10.37,2013-01-03 19:29:00,
2013-01-03 09:52:00,70.3,68.8,30.06,ESE,112,5.8,8.1,95,0.04,CLR,,0.45,WeatherDisplay:10.37,2013-01-03 19:52:00,
2013-01-03 09:57:00,70.7,69.2,30.06,ESE,112,5.1,5.8,95,0.04,CLR,,0.45,WeatherDisplay:10.37,2013-01-03 19:57:00,
2013-01-03 10:02:00,71.2,69.4,30.06,WSW,248,1.4,5.8,94,0.04,CLR,,0.45,WeatherDisplay:10.37,2013-01-03 20:02:00,
2013-01-03 10:07:00,71.4,69.6,30.06,ENE,68,2.5,4.6,94,0.03,CLR,,0.45,WeatherDisplay:10.37,2013-01-03 20:07:00,
2013-01-03 10:12:00,71.6,69.5,30.06,ESE,112,3.4,3.7,93,0.02,CLR,,0.45,WeatherDisplay:10.37,2013-01-03 20:12:00,
2013-01-03 10:17:00,71.4,69.3,30.06,NE,45,7.2,10.4,93,0.01,CLR,,0.45,WeatherDisplay:10.37,2013-01-03 20:17:00,
2013-01-03 10:22:00,71.1,69.0,30.06,NNE,22,5.0,5.8,93,0.01,RA,,0.46,WeatherDisplay:10.37,2013-01-03 20:22:00,
2013-01-03 10:27:00,70.7,68.6,30.06,ENE,68,6.2,6.2,93,0.01,RA,,0.46,WeatherDisplay:10.37,2013-01-03 20:27:00,
2013-01-03 10:32:00,70.9,68.8,30.06,West,270,5.5,8.1,93,0.02,RA,,0.48,WeatherDisplay:10.37,2013-01-03 20:32:00,
2013-01-03 10:37:00,70.9,69.1,30.06,NNW,338,3.3,3.7,94,0.04,RA,,0.49,WeatherDisplay:10.37,2013-01-03 20:37:00,
2013-01-03 10:43:00,71.1,69.0,30.06,NE,45,2.8,3.5,93,0.04,,,0.49,WeatherDisplay:10.37,2013-01-03 20:43:00,
2013-01-03 10:48:00,71.4,69.3,30.05,ESE,112,2.7,3.7,93,0.04,CLR,,0.49,WeatherDisplay:10.37,2013-01-03 20:48:00,
2013-01-03 10:53:00,72.0,69.9,30.05,West,270,1.0,1.1,93,0.04,CLR,,0.49,WeatherDisplay:10.37,2013-01-03 20:53:00,
2013-01-03 10:58:00,72.0,69.5,30.05,East,90,3.9,7.3,92,0.04,CLR,,0.49,WeatherDisplay:10.37,2013-01-03 20:58:00,
2013-01-03 11:03:00,72.0,68.9,30.05,ENE,68,2.7,4.6,90,0.04,CLR,,0.49,WeatherDisplay:10.37,2013-01-03 21:03:00,
2013-01-03 11:08:00,72.5,68.7,30.05,NNE,22,4.3,4.7,88,0.04,CLR,,0.49,WeatherDisplay:10.37,2013-01-03 21:08:00,
2013-01-03 11:13:00,72.9,68.8,30.04,ENE,68,5.7,8.3,87,0.04,CLR,,0.49,WeatherDisplay:10.37,2013-01-03 21:13:00,
2013-01-03 11:18:00,73.0,68.9,30.04,WNW,292,5.6,7.8,87,0.03,CLR,,0.49,WeatherDisplay:10.37,2013-01-03 21:18:00,
2013-01-03 11:23:00,73.0,68.9,30.03,NNE,22,4.3,6.9,87,0.03,CLR,,0.49,WeatherDisplay:10.37,2013-01-03 21:23:00,
2013-01-03 11:28:00,73.2,69.1,30.03,South,180,5.7,6.9,87,0.03,CLR,,0.49,WeatherDisplay:10.37,2013-01-03 21:28:00,
2013-01-03 11:33:00,73.9,69.8,30.03,East,90,1.8,2.3,87,0.00,CLR,,0.49,WeatherDisplay:10.37,2013-01-03 21:33:00,
2013-01-03 11:38:00,73.4,68.6,30.03,ESE,112,11.5,12.4,85,0.00,CLR,,0.49,WeatherDisplay:10.37,2013-01-03 21:38:00,
2013-01-03 11:44:00,71.2,67.8,30.03,East,90,10.9,18.4,89,0.01,RA,,0.50,WeatherDisplay:10.37,2013-01-03 21:44:00,
2013-01-03 11:49:00,70.9,68.1,30.04,ESE,112,7.9,8.8,91,0.01,RA,,0.50,WeatherDisplay:10.37,2013-01-03 21:49:00,
2013-01-03 11:54:00,71.4,69.0,30.04,WNW,292,4.2,5.8,92,0.01,,,0.50,WeatherDisplay:10.37,2013-01-03 21:54:00,
2013-01-03 11:59:00,72.0,69.2,30.03,NW,315,3.0,3.5,91,0.01,CLR,,0.50,WeatherDisplay:10.37,2013-01-03 21:59:00,
2013-01-03 12:05:00,72.0,69.2,30.03,West,270,4.5,4.6,91,0.01,CLR,,0.50,WeatherDisplay:10.37,2013-01-03 22:05:00,
2013-01-03 12:10:00,72.4,69.3,30.02,North,354,6.0,6.0,90,0.00,CLR,,0.50,WeatherDisplay:10.37,2013-01-03 22:10:00,
2013-01-03 12:15:00,72.7,68.6,30.02,ENE,68,9.0,10.4,87,0.01,CLR,,0.50,WeatherDisplay:10.37,2013-01-03 22:15:00,
2013-01-03 12:20:00,72.1,68.3,30.02,NE,56,6.0,10.0,88,0.00,CLR,,0.50,WeatherDisplay:10.37,2013-01-03 22:20:00,
2013-01-03 12:25:00,71.6,68.5,30.03,East,85,6.0,15.0,90,0.00,CLR,,0.50,WeatherDisplay:10.37,2013-01-03 22:25:00,
2013-01-03 12:30:00,71.6,68.5,30.03,ENE,70,7.0,13.0,90,0.00,CLR,,0.50,WeatherDisplay:10.37,2013-01-03 22:30:00,
2013-01-03 12:35:00,72.3,69.2,30.02,NNE,22,7.7,7.7,90,0.01,CLR,,0.50,WeatherDisplay:10.37,2013-01-03 22:35:00,
2013-01-03 12:40:00,72.5,69.1,30.02,NE,45,6.4,6.9,89,0.01,CLR,,0.50,WeatherDisplay:10.37,2013-01-03 22:40:00,
2013-01-03 12:45:00,72.7,69.3,30.02,East,90,7.8,9.2,89,0.00,CLR,,0.50,WeatherDisplay:10.37,2013-01-03 22:45:00,
2013-01-03 12:50:00,72.9,69.1,30.01,East,90,5.6,8.1,88,0.00,CLR,,0.50,WeatherDisplay:10.37,2013-01-03 22:50:00,
2013-01-03 12:55:00,73.0,68.9,30.01,North,360,3.3,5.8,87,0.00,CLR,,0.50,WeatherDisplay:10.37,2013-01-03 22:55:00,
2013-01-03 13:00:00,72.9,68.5,30.00,East,90,4.7,4.7,86,0.00,CLR,,0.50,WeatherDisplay:10.37,2013-01-03 23:00:00,
2013-01-03 13:05:00,71.2,68.1,30.00,ESE,112,5.1,6.8,90,0.02,RA,,0.52,WeatherDisplay:10.37,2013-01-03 23:05:00,
2013-01-03 13:10:00,70.7,68.3,30.00,NNW,338,4.9,5.8,92,0.02,RA,,0.52,WeatherDisplay:10.37,2013-01-03 23:10:00,
2013-01-03 13:15:00,71.1,68.7,30.00,ESE,112,3.8,4.6,92,0.02,CLR,,0.52,WeatherDisplay:10.37,2013-01-03 23:15:00,
2013-01-03 13:20:00,71.2,68.8,30.00,NNE,22,1.9,2.3,92,0.02,CLR,,0.52,WeatherDisplay:10.37,2013-01-03 23:20:00,
2013-01-03 13:25:00,71.8,69.3,29.99,SSE,158,1.8,4.7,92,0.02,CLR,,0.52,WeatherDisplay:10.37,2013-01-03 23:25:00,
2013-01-03 13:30:00,71.6,68.8,29.99,ESE,112,6.0,6.9,91,0.02,CLR,,0.52,WeatherDisplay:10.37,2013-01-03 23:30:00,
2013-01-03 13:35:00,71.1,68.3,29.99,NE,45,10.0,10.0,91,0.03,RA,,0.53,WeatherDisplay:10.37,2013-01-03 23:35:00,
2013-01-03 13:41:00,71.2,68.4,29.99,SSE,158,4.6,5.8,91,0.03,RA,,0.53,WeatherDisplay:10.37,2013-01-03 23:41:00,
2013-01-03 13:46:00,71.4,68.6,29.99,SSW,202,3.7,4.6,91,0.03,CLR,,0.53,WeatherDisplay:10.37,2013-01-03 23:46:00,
2013-01-03 13:51:00,71.8,69.0,29.99,WNW,292,3.5,6.3,91,0.03,CLR,,0.53,WeatherDisplay:10.37,2013-01-03 23:51:00,
2013-01-03 13:56:00,72.1,69.3,29.99,WSW,248,4.2,5.8,91,0.03,CLR,,0.53,WeatherDisplay:10.37,2013-01-03 23:56:00,
2013-01-03 14:01:00,72.3,69.2,29.99,NE,45,7.0,10.4,90,0.03,CLR,,0.53,WeatherDisplay:10.37,2013-01-04 00:01:00,
2013-01-03 14:06:00,72.3,68.9,29.99,ENE,68,8.3,11.5,89,0.01,CLR,,0.53,WeatherDisplay:10.37,2013-01-04 00:06:00,
2013-01-03 14:11:00,72.3,68.9,29.99,NNE,22,7.7,10.4,89,0.01,CLR,,0.53,WeatherDisplay:10.37,2013-01-04 00:11:00,
2013-01-03 14:16:00,72.5,69.1,29.99,ENE,68,4.6,6.3,89,0.01,CLR,,0.53,WeatherDisplay:10.37,2013-01-04 00:16:00,
2013-01-03 14:21:00,72.7,69.3,29.99,ESE,112,6.7,11.4,89,0.01,CLR,,0.53,WeatherDisplay:10.37,2013-01-04 00:21:00,
2013-01-03 14:26:00,72.9,68.8,29.99,East,90,7.8,9.2,87,0.01,CLR,,0.53,WeatherDisplay:10.37,2013-01-04 00:26:00,
2013-01-03 14:31:00,73.0,68.9,29.99,NNE,22,4.1,5.8,87,0.01,CLR,,0.53,WeatherDisplay:10.37,2013-01-04 00:31:00,
2013-01-03 14:36:00,72.7,68.9,29.98,WNW,292,4.7,6.9,88,0.00,CLR,,0.53,WeatherDisplay:10.37,2013-01-04 00:36:00,
2013-01-03 14:41:00,72.7,68.9,29.98,NE,45,4.8,6.9,88,0.00,CLR,,0.53,WeatherDisplay:10.37,2013-01-04 00:41:00,
2013-01-03 14:46:00,71.6,67.9,29.99,ESE,112,13.0,15.0,88,0.04,RA,,0.58,WeatherDisplay:10.37,2013-01-04 00:46:00,
2013-01-03 14:52:00,70.7,67.6,29.99,South,180,5.5,8.1,90,0.06,RA,,0.59,WeatherDisplay:10.37,2013-01-04 00:52:00,
2013-01-03 14:57:00,70.2,67.4,29.99,NW,315,4.5,6.9,91,0.07,RA,,0.60,WeatherDisplay:10.37,2013-01-04 00:57:00,
2013-01-03 15:02:00,70.0,67.3,29.99,NW,315,4.0,4.6,91,0.07,RA,,0.60,WeatherDisplay:10.37,2013-01-04 01:02:00,
2013-01-03 15:07:00,70.0,67.6,29.99,NW,315,4.8,7.3,92,0.07,,,0.60,WeatherDisplay:10.37,2013-01-04 01:07:00,
2013-01-03 15:12:00,70.3,67.9,29.99,NNW,338,4.1,5.8,92,0.07,CLR,,0.60,WeatherDisplay:10.37,2013-01-04 01:12:00,
2013-01-03 15:17:00,70.2,67.8,29.99,NNE,22,4.8,6.9,92,0.07,CLR,,0.60,WeatherDisplay:10.37,2013-01-04 01:17:00,
2013-01-03 15:22:00,70.3,67.9,29.99,NNE,22,2.9,4.6,92,0.07,CLR,,0.60,WeatherDisplay:10.37,2013-01-04 01:22:00,
2013-01-03 15:27:00,70.5,68.1,29.99,ENE,68,3.7,4.7,92,0.07,CLR,,0.60,WeatherDisplay:10.37,2013-01-04 01:27:00,
2013-01-03 15:32:00,70.3,67.9,29.99,East,90,3.5,6.9,92,0.08,RA,,0.61,WeatherDisplay:10.37,2013-01-04 01:32:00,
2013-01-03 15:37:00,70.0,67.6,29.99,ESE,112,5.5,6.9,92,0.09,RA,,0.62,WeatherDisplay:10.37,2013-01-04 01:37:00,
2013-01-03 15:42:00,70.0,67.6,29.99,NNE,22,3.6,5.8,92,0.09,RA,,0.62,WeatherDisplay:10.37,2013-01-04 01:42:00,
2013-01-03 15:47:00,70.2,67.8,30.00,ESE,112,5.2,10.4,92,0.04,CLR,,0.62,WeatherDisplay:10.37,2013-01-04 01:47:00,
2013-01-03 15:52:00,70.2,67.8,30.00,NNW,338,4.3,5.8,92,0.03,CLR,,0.62,WeatherDisplay:10.37,2013-01-04 01:52:00,
2013-01-03 15:58:00,70.2,67.8,30.00,NNE,22,4.7,4.7,92,0.02,CLR,,0.62,WeatherDisplay:10.37,2013-01-04 01:58:00,
2013-01-03 16:03:00,70.3,67.9,30.00,ENE,68,4.5,6.3,92,0.02,CLR,,0.62,WeatherDisplay:10.37,2013-01-04 02:03:00,
2013-01-03 16:08:00,70.3,67.9,30.00,SSE,158,3.8,5.8,92,0.02,CLR,,0.62,WeatherDisplay:10.37,2013-01-04 02:08:00,
2013-01-03 16:13:00,70.7,67.9,30.00,West,270,6.8,9.2,91,0.02,CLR,,0.62,WeatherDisplay:10.37,2013-01-04 02:13:00,
2013-01-03 16:18:00,70.3,67.5,30.00,NW,315,5.1,6.9,91,0.02,CLR,,0.62,WeatherDisplay:10.37,2013-01-04 02:18:00,
2013-01-03 16:23:00,70.3,67.5,30.00,East,90,6.6,9.9,91,0.02,CLR,,0.62,WeatherDisplay:10.37,2013-01-04 02:23:00,
2013-01-03 16:28:00,70.2,67.4,30.00,ENE,68,6.6,9.2,91,0.02,CLR,,0.62,WeatherDisplay:10.37,2013-01-04 02:28:00,
2013-01-03 16:33:00,70.0,67.3,30.01,NNE,22,8.3,9.2,91,0.01,CLR,,0.62,WeatherDisplay:10.37,2013-01-04 02:33:00,
2013-01-03 16:38:00,70.0,67.3,30.01,East,90,5.0,6.9,91,0.00,CLR,,0.62,WeatherDisplay:10.37,2013-01-04 02:38:00,
2013-01-03 16:43:00,70.0,67.3,30.01,ENE,68,7.9,11.5,91,0.00,CLR,,0.62,WeatherDisplay:10.37,2013-01-04 02:43:00,
2013-01-03 16:48:00,69.8,67.4,30.01,SSE,158,4.2,5.3,92,0.00,CLR,,0.62,WeatherDisplay:10.37,2013-01-04 02:48:00,
2013-01-03 16:53:00,69.8,67.4,30.01,NW,315,3.3,6.3,92,0.00,CLR,,0.62,WeatherDisplay:10.37,2013-01-04 02:53:00,
2013-01-03 16:58:00,70.0,67.6,30.01,NNW,338,5.0,7.8,92,0.00,CLR,,0.62,WeatherDisplay:10.37,2013-01-04 02:58:00,
2013-01-03 17:03:00,70.0,67.3,30.01,NNE,22,3.3,5.8,91,0.00,CLR,,0.62,WeatherDisplay:10.37,2013-01-04 03:03:00,
2013-01-03 17:09:00,70.3,67.2,30.01,ENE,68,4.0,5.8,90,0.00,CLR,,0.62,WeatherDisplay:10.37,2013-01-04 03:09:00,
2013-01-03 17:14:00,70.3,67.2,30.01,East,90,11.7,13.8,90,0.00,CLR,,0.62,WeatherDisplay:10.37,2013-01-04 03:14:00,
2013-01-03 17:19:00,70.9,67.5,30.01,ESE,112,4.7,7.3,89,0.00,CLR,,0.62,WeatherDisplay:10.37,2013-01-04 03:19:00,
2013-01-03 17:24:00,70.9,67.5,30.01,ENE,68,5.0,9.4,89,0.00,CLR,,0.62,WeatherDisplay:10.37,2013-01-04 03:24:00,
2013-01-03 17:29:00,70.9,67.2,30.01,WNW,292,6.7,9.2,88,0.00,CLR,,0.62,WeatherDisplay:10.37,2013-01-04 03:29:00,
2013-01-03 17:34:00,71.1,67.0,30.01,NNE,22,3.7,4.6,87,0.00,CLR,,0.62,WeatherDisplay:10.37,2013-01-04 03:34:00,
2013-01-03 17:39:00,71.1,67.0,30.02,NE,45,6.9,10.4,87,0.00,CLR,,0.62,WeatherDisplay:10.37,2013-01-04 03:39:00,
2013-01-03 17:44:00,71.2,66.8,30.02,East,90,7.0,10.4,86,0.00,CLR,,0.62,WeatherDisplay:10.37,2013-01-04 03:44:00,
2013-01-03 17:49:00,71.4,67.0,30.01,ESE,112,9.6,10.4,86,0.00,CLR,,0.62,WeatherDisplay:10.37,2013-01-04 03:49:00,
2013-01-03 17:54:00,71.4,66.7,30.01,NNW,338,5.3,6.9,85,0.00,CLR,,0.62,WeatherDisplay:10.37,2013-01-04 03:54:00,
2013-01-03 17:59:00,71.4,67.0,30.02,NNW,338,3.1,6.9,86,0.00,CLR,,0.62,WeatherDisplay:10.37,2013-01-04 03:59:00,
2013-01-03 18:04:00,71.4,67.3,30.02,NE,45,5.2,6.8,87,0.00,CLR,,0.62,WeatherDisplay:10.37,2013-01-04 04:04:00,
2013-01-03 18:09:00,71.4,67.0,30.02,NNE,22,6.9,10.4,86,0.00,CLR,,0.62,WeatherDisplay:10.37,2013-01-04 04:09:00,
2013-01-03 18:15:00,71.4,66.7,30.02,ENE,68,5.1,8.1,85,0.00,CLR,,0.62,WeatherDisplay:10.37,2013-01-04 04:15:00,
2013-01-03 18:20:00,71.4,66.7,30.02,NE,37,6.0,9.0,85,0.00,CLR,,0.62,WeatherDisplay:10.37,2013-01-04 04:20:00,
2013-01-03 18:25:00,71.4,67.0,30.03,ENE,66,8.0,11.0,86,0.00,CLR,,0.62,WeatherDisplay:10.37,2013-01-04 04:25:00,
2013-01-03 18:30:00,71.4,67.7,30.03,NNE,28,5.0,13.0,88,0.00,CLR,,0.62,WeatherDisplay:10.37,2013-01-04 04:30:00,
2013-01-03 18:35:00,71.4,68.0,30.03,North,351,6.0,9.0,89,0.00,CLR,,0.62,WeatherDisplay:10.37,2013-01-04 04:35:00,
2013-01-03 18:40:00,71.4,68.0,30.03,North,359,6.0,6.0,89,0.00,CLR,,0.62,WeatherDisplay:10.37,2013-01-04 04:40:00,
2013-01-03 18:45:00,70.9,67.5,30.03,NNW,346,6.0,9.0,89,0.00,CLR,,0.62,WeatherDisplay:10.37,2013-01-04 04:45:00,
2013-01-03 18:49:00,71.1,67.7,30.04,NNE,22,6.3,8.1,89,0.00,CLR,,0.62,WeatherDisplay:10.37,2013-01-04 04:49:00,
2013-01-03 18:55:00,71.1,67.7,30.04,NNE,27,6.0,8.0,89,0.00,CLR,,0.62,WeatherDisplay:10.37,2013-01-04 04:55:00,
2013-01-03 19:00:00,71.1,67.7,30.04,North,360,5.3,5.8,89,0.00,CLR,,0.62,WeatherDisplay:10.37,2013-01-04 05:00:00,
2013-01-03 19:01:00,71.2,67.8,30.04,NE,45,8.2,10.4,89,0.00,CLR,,0.62,WeatherDisplay:10.37,2013-01-04 05:01:00,
2013-01-03 19:02:00,71.2,67.8,30.04,ESE,112,6.5,6.9,89,0.00,CLR,,0.62,WeatherDisplay:10.37,2013-01-04 05:02:00,
2013-01-03 19:03:00,71.2,67.8,30.04,NNW,338,5.3,9.2,89,0.00,CLR,,0.62,WeatherDisplay:10.37,2013-01-04 05:03:00,
2013-01-03 19:08:00,71.4,68.0,30.04,SSE,158,6.9,7.3,89,0.00,CLR,,0.62,WeatherDisplay:10.37,2013-01-04 05:08:00,
2013-01-03 19:13:00,71.6,68.2,30.05,WSW,248,6.3,10.4,89,0.00,CLR,,0.62,WeatherDisplay:10.37,2013-01-04 05:13:00,
2013-01-03 19:18:00,71.8,67.4,30.05,NE,45,8.2,10.9,86,0.00,CLR,,0.62,WeatherDisplay:10.37,2013-01-04 05:18:00,
2013-01-03 19:23:00,71.8,66.4,30.05,NE,45,6.3,8.8,83,0.00,CLR,,0.62,WeatherDisplay:10.37,2013-01-04 05:23:00,
2013-01-03 19:28:00,72.1,66.3,30.05,North,360,4.3,10.4,82,0.00,CLR,,0.62,WeatherDisplay:10.37,2013-01-04 05:28:00,
2013-01-03 19:33:00,72.5,66.7,30.05,East,90,6.6,10.4,82,0.00,CLR,,0.62,WeatherDisplay:10.37,2013-01-04 05:33:00,
2013-01-03 19:38:00,72.5,66.3,30.05,NNE,22,7.3,10.4,81,0.00,CLR,,0.62,WeatherDisplay:10.37,2013-01-04 05:38:00,
2013-01-03 19:43:00,72.1,65.9,30.05,East,90,10.1,11.5,81,0.00,CLR,,0.62,WeatherDisplay:10.37,2013-01-04 05:43:00,
2013-01-03 19:49:00,72.3,66.1,30.07,NE,45,8.2,13.8,81,0.00,CLR,,0.62,WeatherDisplay:10.37,2013-01-04 05:49:00,
2013-01-03 19:54:00,72.1,65.9,30.07,NE,45,5.1,10.4,81,0.00,CLR,,0.62,WeatherDisplay:10.37,2013-01-04 05:54:00,
2013-01-03 19:59:00,72.1,65.9,30.07,East,90,8.5,10.9,81,0.00,CLR,,0.62,WeatherDisplay:10.37,2013-01-04 05:59:00,
2013-01-03 20:04:00,72.3,66.1,30.07,ESE,112,7.6,9.2,81,0.00,CLR,,0.62,WeatherDisplay:10.37,2013-01-04 06:04:00,
2013-01-03 20:09:00,72.3,66.1,30.07,NE,45,7.2,13.8,81,0.00,CLR,,0.62,WeatherDisplay:10.37,2013-01-04 06:09:00,
2013-01-03 20:14:00,72.3,66.1,30.07,SSE,158,10.2,10.2,81,0.00,CLR,,0.62,WeatherDisplay:10.37,2013-01-04 06:14:00,
2013-01-03 20:19:00,72.3,66.1,30.07,ESE,112,5.0,5.8,81,0.00,CLR,,0.62,WeatherDisplay:10.37,2013-01-04 06:19:00,
2013-01-03 20:24:00,72.3,66.1,30.08,NNW,338,7.1,11.5,81,0.00,CLR,,0.62,WeatherDisplay:10.37,2013-01-04 06:24:00,
2013-01-03 20:29:00,72.3,65.8,30.08,NW,315,2.9,3.5,80,0.00,CLR,,0.62,WeatherDisplay:10.37,2013-01-04 06:29:00,
2013-01-03 20:34:00,72.1,65.6,30.08,East,90,5.3,6.8,80,0.00,CLR,,0.62,WeatherDisplay:10.37,2013-01-04 06:34:00,
2013-01-03 20:39:00,72.3,65.8,30.08,ENE,68,7.4,9.2,80,0.00,CLR,,0.62,WeatherDisplay:10.37,2013-01-04 06:39:00,
2013-01-03 20:44:00,72.3,65.8,30.08,NNE,22,7.5,10.4,80,0.00,CLR,,0.62,WeatherDisplay:10.37,2013-01-04 06:44:00,
2013-01-03 20:49:00,72.3,65.8,30.08,North,360,8.9,12.7,80,0.00,CLR,,0.62,WeatherDisplay:10.37,2013-01-04 06:49:00,
2013-01-03 20:54:00,72.1,65.6,30.08,East,90,7.1,9.9,80,0.00,CLR,,0.62,WeatherDisplay:10.37,2013-01-04 06:54:00,
2013-01-03 21:00:00,72.5,66.0,30.08,NE,36,8.0,13.0,80,0.00,CLR,,0.62,WeatherDisplay:10.37,2013-01-04 07:00:00,
2013-01-03 21:05:00,72.4,65.9,30.08,NE,45,10.0,15.0,80,0.00,CLR,,0.62,WeatherDisplay:10.37,2013-01-04 07:05:00,
2013-01-03 21:10:00,72.5,66.0,30.08,NE,45,9.9,13.0,80,0.00,CLR,,0.62,WeatherDisplay:10.37,2013-01-04 07:10:00,
2013-01-03 21:15:00,72.3,65.8,30.09,East,90,6.0,11.4,80,0.00,CLR,,0.62,WeatherDisplay:10.37,2013-01-04 07:15:00,
2013-01-03 21:20:00,72.3,65.8,30.09,NNE,22,7.0,10.9,80,0.00,CLR,,0.62,WeatherDisplay:10.37,2013-01-04 07:20:00,
2013-01-03 21:25:00,72.5,66.0,30.09,ESE,112,7.2,11.5,80,0.00,CLR,,0.62,WeatherDisplay:10.37,2013-01-04 07:25:00,
2013-01-03 21:30:00,72.3,66.1,30.09,North,360,4.9,5.3,81,0.00,CLR,,0.62,WeatherDisplay:10.37,2013-01-04 07:30:00,
2013-01-03 21:35:00,72.1,65.9,30.09,East,90,8.7,12.7,81,0.00,CLR,,0.62,WeatherDisplay:10.37,2013-01-04 07:35:00,
2013-01-03 21:40:00,72.1,65.9,30.09,NE,45,5.1,5.3,81,0.00,CLR,,0.62,WeatherDisplay:10.37,2013-01-04 07:40:00,
2013-01-03 21:45:00,72.1,65.9,30.09,East,90,7.6,9.2,81,0.00,CLR,,0.62,WeatherDisplay:10.37,2013-01-04 07:45:00,
2013-01-03 21:50:00,72.1,65.9,30.09,West,270,4.9,5.8,81,0.00,CLR,,0.62,WeatherDisplay:10.37,2013-01-04 07:50:00,
2013-01-03 21:55:00,72.1,65.9,30.09,NE,45,10.0,11.5,81,0.00,CLR,,0.62,WeatherDisplay:10.37,2013-01-04 07:55:00,
2013-01-03 22:00:00,72.3,65.8,30.09,East,90,5.3,8.1,80,0.00,CLR,,0.62,WeatherDisplay:10.37,2013-01-04 08:00:00,
2013-01-03 22:05:00,72.1,65.6,30.09,ENE,68,7.1,7.8,80,0.00,CLR,,0.62,WeatherDisplay:10.37,2013-01-04 08:05:00,
2013-01-03 22:11:00,72.1,65.9,30.09,NNE,22,4.4,5.8,81,0.00,CLR,,0.62,WeatherDisplay:10.37,2013-01-04 08:11:00,
2013-01-03 22:16:00,72.1,65.9,30.09,ENE,68,6.4,8.1,81,0.00,CLR,,0.62,WeatherDisplay:10.37,2013-01-04 08:16:00,
2013-01-03 22:21:00,72.1,65.6,30.09,NNE,22,9.7,11.5,80,0.00,CLR,,0.62,WeatherDisplay:10.37,2013-01-04 08:21:00,
2013-01-03 22:26:00,72.1,65.6,30.08,NNE,22,4.1,9.2,80,0.00,CLR,,0.62,WeatherDisplay:10.37,2013-01-04 08:26:00,
2013-01-03 22:31:00,72.1,65.6,30.08,NE,45,5.9,6.9,80,0.00,CLR,,0.62,WeatherDisplay:10.37,2013-01-04 08:31:00,
2013-01-03 22:36:00,72.1,65.6,30.08,ENE,68,9.6,11.5,80,0.00,CLR,,0.62,WeatherDisplay:10.37,2013-01-04 08:36:00,
2013-01-03 22:41:00,72.1,65.6,30.08,ENE,68,2.7,4.6,80,0.00,CLR,,0.62,WeatherDisplay:10.37,2013-01-04 08:41:00,
2013-01-03 22:46:00,72.1,65.6,30.08,East,90,6.8,9.4,80,0.00,CLR,,0.62,WeatherDisplay:10.37,2013-01-04 08:46:00,
2013-01-03 22:51:00,72.3,65.8,30.08,NE,45,5.7,6.9,80,0.00,CLR,,0.62,WeatherDisplay:10.37,2013-01-04 08:51:00,
2013-01-03 22:56:00,72.3,65.8,30.08,NE,45,6.7,13.8,80,0.00,CLR,,0.62,WeatherDisplay:10.37,2013-01-04 08:56:00,
2013-01-03 23:01:00,72.1,65.6,30.08,ENE,68,9.4,11.5,80,0.00,CLR,,0.62,WeatherDisplay:10.37,2013-01-04 09:01:00,
2013-01-03 23:06:00,72.1,65.6,30.08,WNW,292,7.6,9.9,80,0.00,CLR,,0.62,WeatherDisplay:10.37,2013-01-04 09:06:00,
2013-01-03 23:11:00,72.3,65.8,30.08,East,90,4.7,10.4,80,0.00,CLR,,0.62,WeatherDisplay:10.37,2013-01-04 09:11:00,
2013-01-03 23:17:00,72.1,65.6,30.08,ESE,112,5.3,5.8,80,0.00,CLR,,0.62,WeatherDisplay:10.37,2013-01-04 09:17:00,
2013-01-03 23:22:00,72.1,65.6,30.08,ESE,112,5.3,5.8,80,0.00,CLR,,0.62,WeatherDisplay:10.37,2013-01-04 09:22:00,
2013-01-03 23:27:00,72.1,65.2,30.08,NE,45,10.2,11.5,79,0.00,CLR,,0.62,WeatherDisplay:10.37,2013-01-04 09:27:00,
2013-01-03 23:32:00,72.1,65.2,30.08,NE,45,5.3,6.8,79,0.00,CLR,,0.62,WeatherDisplay:10.37,2013-01-04 09:32:00,
2013-01-03 23:37:00,72.1,65.2,30.08,NE,45,8.7,10.4,79,0.00,CLR,,0.62,WeatherDisplay:10.37,2013-01-04 09:37:00,
2013-01-03 23:42:00,72.1,65.2,30.08,NE,45,10.8,12.7,79,0.00,CLR,,0.62,WeatherDisplay:10.37,2013-01-04 09:42:00,
2013-01-03 23:47:00,72.1,64.9,30.08,SSE,158,12.6,15.0,78,0.00,CLR,,0.62,WeatherDisplay:10.37,2013-01-04 09:47:00,
2013-01-03 23:52:00,72.0,64.8,30.08,NE,45,7.6,10.4,78,0.14,RA,,0.76,WeatherDisplay:10.37,2013-01-04 09:52:00,
2013-01-03 23:57:00,72.3,65.1,30.08,ENE,68,4.4,9.2,78,0.14,RA,,0.76,WeatherDisplay:10.37,2013-01-04 09:57:00,